Time,TemperatureF,DewpointF,PressureIn,WindDirection,WindDirectionDegrees,WindSpeedMPH,WindSpeedGustMPH,Humidity,HourlyPrecipIn,Conditions,Clouds,dailyrainin,SolarRadiationWatts/m^2,SoftwareType,DateUTC
2013-01-27 00:00:00,21.6,9.5,30.43,West,278,4.0,10.0,59,0.00,,,0.00,0.0,meteohub,2013-01-27 05:00:00,
2013-01-27 00:01:00,21.6,9.5,30.43,WSW,248,3.0,10.0,59,0.00,,,0.00,0.0,meteohub,2013-01-27 05:01:00,
2013-01-27 00:02:00,21.6,9.5,30.43,WNW,285,1.0,10.0,59,0.00,,,0.00,0.0,meteohub,2013-01-27 05:02:00,
2013-01-27 00:07:00,21.2,9.1,30.43,NW,315,5.0,7.0,59,0.00,,,0.00,0.0,meteohub,2013-01-27 05:07:00,
2013-01-27 00:13:00,21.0,9.0,30.43,NNW,331,4.0,7.0,59,0.00,,,0.00,0.0,meteohub,2013-01-27 05:13:00,
2013-01-27 00:18:00,21.0,9.0,30.43,NW,323,3.0,8.0,59,0.00,,,0.00,0.0,meteohub,2013-01-27 05:18:00,
2013-01-27 00:23:00,21.0,9.3,30.43,NW,315,1.0,8.0,60,0.00,,,0.00,0.0,meteohub,2013-01-27 05:23:00,
2013-01-27 00:28:00,20.8,9.1,30.43,NNW,336,3.0,6.0,60,0.00,,,0.00,0.0,meteohub,2013-01-27 05:28:00,
2013-01-27 00:33:00,20.8,9.1,30.43,WNW,301,2.0,7.0,60,0.00,,,0.00,0.0,meteohub,2013-01-27 05:33:00,
2013-01-27 00:38:00,20.8,9.1,30.43,NW,318,6.0,8.0,60,0.00,,,0.00,0.0,meteohub,2013-01-27 05:38:00,
2013-01-27 00:43:00,20.8,9.1,30.43,NW,308,4.0,8.0,60,0.00,,,0.00,0.0,meteohub,2013-01-27 05:43:00,
2013-01-27 00:48:00,20.8,9.5,30.43,NNW,331,3.0,9.0,61,0.00,,,0.00,0.0,meteohub,2013-01-27 05:48:00,
2013-01-27 00:53:00,20.8,9.5,30.43,NW,319,3.0,9.0,61,0.00,,,0.00,0.0,meteohub,2013-01-27 05:53:00,
2013-01-27 00:58:00,20.8,9.5,30.43,NW,308,3.0,9.0,61,0.00,,,0.00,0.0,meteohub,2013-01-27 05:58:00,
2013-01-27 01:04:00,20.7,9.3,30.43,NW,311,5.0,7.0,61,0.00,,,0.00,0.0,meteohub,2013-01-27 06:04:00,
2013-01-27 01:09:00,20.7,9.3,30.44,NW,311,3.0,7.0,61,0.00,,,0.00,0.0,meteohub,2013-01-27 06:09:00,
2013-01-27 01:14:00,20.7,9.7,30.44,WNW,296,2.0,7.0,62,0.00,,,0.00,0.0,meteohub,2013-01-27 06:14:00,
2013-01-27 01:19:00,20.5,9.5,30.44,NW,324,2.0,7.0,62,0.00,,,0.00,0.0,meteohub,2013-01-27 06:19:00,
2013-01-27 01:24:00,20.5,9.5,30.44,NW,317,3.0,7.0,62,0.00,,,0.00,0.0,meteohub,2013-01-27 06:24:00,
2013-01-27 01:29:00,20.3,9.3,30.45,NW,317,3.0,8.0,62,0.00,,,0.00,0.0,meteohub,2013-01-27 06:29:00,
2013-01-27 01:34:00,20.3,9.7,30.45,WNW,293,3.0,8.0,63,0.00,,,0.00,0.0,meteohub,2013-01-27 06:34:00,
2013-01-27 01:39:00,20.3,9.7,30.45,NW,304,8.0,8.0,63,0.00,,,0.00,0.0,meteohub,2013-01-27 06:39:00,
2013-01-27 01:44:00,20.3,9.7,30.45,North,0,3.0,9.0,63,0.00,,,0.00,0.0,meteohub,2013-01-27 06:44:00,
2013-01-27 01:49:00,20.1,9.5,30.45,WNW,287,2.0,9.0,63,0.00,,,0.00,0.0,meteohub,2013-01-27 06:49:00,
2013-01-27 01:54:00,20.3,9.7,30.46,NW,316,4.0,9.0,63,0.00,,,0.00,0.0,meteohub,2013-01-27 06:54:00,
2013-01-27 02:00:00,20.3,10.0,30.46,NW,323,2.0,9.0,64,0.00,,,0.00,0.0,meteohub,2013-01-27 07:00:00,
2013-01-27 02:05:00,20.3,10.0,30.46,NW,315,3.0,9.0,64,0.00,,,0.00,0.0,meteohub,2013-01-27 07:05:00,
2013-01-27 02:13:00,20.1,9.9,30.46,NW,317,4.0,7.0,64,0.00,,,0.00,0.0,meteohub,2013-01-27 07:13:00,
2013-01-27 02:18:00,20.1,10.2,30.47,West,271,3.0,7.0,65,0.00,,,0.00,0.0,meteohub,2013-01-27 07:18:00,
2013-01-27 02:23:00,20.1,10.2,30.47,NNW,327,4.0,7.0,65,0.00,,,0.00,0.0,meteohub,2013-01-27 07:23:00,
2013-01-27 02:28:00,20.1,10.2,30.47,NW,305,2.0,7.0,65,0.00,,,0.00,0.0,meteohub,2013-01-27 07:28:00,
2013-01-27 02:33:00,20.1,10.2,30.48,West,269,5.0,8.0,65,0.00,,,0.00,0.0,meteohub,2013-01-27 07:33:00,
2013-01-27 02:38:00,20.1,10.6,30.48,WNW,294,6.0,8.0,66,0.00,,,0.00,0.0,meteohub,2013-01-27 07:38:00,
2013-01-27 02:44:00,20.1,10.6,30.48,NW,316,2.0,8.0,66,0.00,,,0.00,0.0,meteohub,2013-01-27 07:44:00,
2013-01-27 02:49:00,19.9,10.4,30.47,NNW,327,5.0,7.0,66,0.00,,,0.00,0.0,meteohub,2013-01-27 07:49:00,
2013-01-27 02:54:00,19.9,10.4,30.47,SW,229,4.0,7.0,66,0.00,,,0.00,0.0,meteohub,2013-01-27 07:54:00,
2013-01-27 02:59:00,19.9,10.4,30.47,NW,318,1.0,7.0,66,0.00,,,0.00,0.0,meteohub,2013-01-27 07:59:00,
2013-01-27 03:04:00,19.8,10.2,30.47,NW,317,0.0,6.0,66,0.00,,,0.00,0.0,meteohub,2013-01-27 08:04:00,
2013-01-27 03:09:00,19.8,10.2,30.47,NW,306,1.0,6.0,66,0.00,,,0.00,0.0,meteohub,2013-01-27 08:09:00,
2013-01-27 03:14:00,19.8,10.6,30.47,NNW,339,0.0,4.0,67,0.00,,,0.00,0.0,meteohub,2013-01-27 08:14:00,
2013-01-27 03:19:00,19.6,10.4,30.47,NNW,339,0.0,4.0,67,0.00,,,0.00,0.0,meteohub,2013-01-27 08:19:00,
2013-01-27 03:24:00,19.2,10.0,30.48,NNW,339,1.0,4.0,67,0.00,,,0.00,0.0,meteohub,2013-01-27 08:24:00,
2013-01-27 03:29:00,18.9,9.7,30.47,NNW,338,1.0,4.0,67,0.00,,,0.00,0.0,meteohub,2013-01-27 08:29:00,
2013-01-27 03:34:00,18.7,9.9,30.47,WSW,240,3.0,3.0,68,0.00,,,0.00,0.0,meteohub,2013-01-27 08:34:00,
2013-01-27 03:40:00,18.3,9.5,30.47,WSW,252,1.0,4.0,68,0.00,,,0.00,0.0,meteohub,2013-01-27 08:40:00,
2013-01-27 03:45:00,18.1,9.3,30.48,West,265,1.0,4.0,68,0.00,,,0.00,0.0,meteohub,2013-01-27 08:45:00,
2013-01-27 03:50:00,18.1,9.7,30.48,SSW,213,2.0,4.0,69,0.00,,,0.00,0.0,meteohub,2013-01-27 08:50:00,
2013-01-27 03:55:00,18.0,9.5,30.47,West,262,3.0,4.0,69,0.00,,,0.00,0.0,meteohub,2013-01-27 08:55:00,
2013-01-27 04:00:00,17.8,9.3,30.47,WSW,248,1.0,4.0,69,0.00,,,0.00,0.0,meteohub,2013-01-27 09:00:00,
2013-01-27 04:05:00,17.8,9.3,30.47,NNW,329,0.0,4.0,69,0.00,,,0.00,0.0,meteohub,2013-01-27 09:05:00,
2013-01-27 04:10:00,17.8,9.3,30.47,WNW,289,3.0,5.0,69,0.00,,,0.00,0.0,meteohub,2013-01-27 09:10:00,
2013-01-27 04:15:00,17.8,9.0,30.47,NW,308,3.0,7.0,68,0.00,,,0.00,0.0,meteohub,2013-01-27 09:15:00,
2013-01-27 04:20:00,18.0,9.1,30.47,SW,232,4.0,7.0,68,0.00,,,0.00,0.0,meteohub,2013-01-27 09:20:00,
2013-01-27 04:25:00,18.0,9.1,30.47,NW,317,2.0,7.0,68,0.00,,,0.00,0.0,meteohub,2013-01-27 09:25:00,
2013-01-27 04:30:00,18.0,9.1,30.47,West,276,2.0,7.0,68,0.00,,,0.00,0.0,meteohub,2013-01-27 09:30:00,
2013-01-27 04:35:00,18.0,9.1,30.47,WNW,294,2.0,6.0,68,0.00,,,0.00,0.0,meteohub,2013-01-27 09:35:00,
2013-01-27 04:41:00,18.0,9.1,30.48,WNW,294,1.0,6.0,68,0.00,,,0.00,0.0,meteohub,2013-01-27 09:41:00,
2013-01-27 04:46:00,18.0,9.1,30.48,WNW,294,1.0,5.0,68,0.00,,,0.00,0.0,meteohub,2013-01-27 09:46:00,
2013-01-27 04:51:00,18.0,9.1,30.48,WNW,294,0.0,3.0,68,0.00,,,0.00,0.0,meteohub,2013-01-27 09:51:00,
2013-01-27 04:56:00,18.1,9.3,30.48,WNW,294,0.0,3.0,68,0.00,,,0.00,0.0,meteohub,2013-01-27 09:56:00,
2013-01-27 05:01:00,18.1,9.3,30.48,WNW,294,0.0,3.0,68,0.00,,,0.00,0.0,meteohub,2013-01-27 10:01:00,
2013-01-27 05:06:00,18.0,9.1,30.49,WNW,294,1.0,3.0,68,0.00,,,0.00,0.0,meteohub,2013-01-27 10:06:00,
2013-01-27 05:11:00,18.1,9.3,30.49,WNW,294,2.0,3.0,68,0.00,,,0.00,0.0,meteohub,2013-01-27 10:11:00,
2013-01-27 05:16:00,18.0,9.1,30.49,SW,236,2.0,3.0,68,0.00,,,0.00,0.0,meteohub,2013-01-27 10:16:00,
2013-01-27 05:21:00,18.0,9.1,30.49,WNW,303,2.0,4.0,68,0.00,,,0.00,0.0,meteohub,2013-01-27 10:21:00,
2013-01-27 05:26:00,17.8,9.3,30.49,WNW,283,2.0,5.0,69,0.00,,,0.00,0.0,meteohub,2013-01-27 10:26:00,
2013-01-27 05:31:00,17.8,9.3,30.49,WNW,302,2.0,5.0,69,0.00,,,0.00,0.0,meteohub,2013-01-27 10:31:00,
2013-01-27 05:37:00,18.0,9.5,30.49,North,355,0.0,5.0,69,0.00,,,0.00,0.0,meteohub,2013-01-27 10:37:00,
2013-01-27 05:42:00,18.0,9.5,30.50,North,355,1.0,5.0,69,0.00,,,0.00,0.0,meteohub,2013-01-27 10:42:00,
2013-01-27 05:47:00,18.0,9.5,30.50,WNW,284,1.0,4.0,69,0.00,,,0.00,0.0,meteohub,2013-01-27 10:47:00,
2013-01-27 05:52:00,18.0,9.5,30.50,NW,312,3.0,3.0,69,0.00,,,0.00,0.0,meteohub,2013-01-27 10:52:00,
2013-01-27 05:57:00,18.0,9.5,30.50,NW,315,0.0,4.0,69,0.00,,,0.00,0.0,meteohub,2013-01-27 10:57:00,
2013-01-27 06:02:00,18.0,9.5,30.50,NW,313,1.0,4.0,69,0.00,,,0.00,0.0,meteohub,2013-01-27 11:02:00,
2013-01-27 06:07:00,18.0,9.5,30.51,West,277,2.0,4.0,69,0.00,,,0.00,0.0,meteohub,2013-01-27 11:07:00,
2013-01-27 06:12:00,18.1,9.7,30.51,West,278,4.0,4.0,69,0.00,,,0.00,0.0,meteohub,2013-01-27 11:12:00,
2013-01-27 06:17:00,18.1,9.3,30.51,NW,312,2.0,4.0,68,0.00,,,0.00,0.0,meteohub,2013-01-27 11:17:00,
2013-01-27 06:22:00,18.1,9.3,30.51,NNW,346,3.0,4.0,68,0.00,,,0.00,0.0,meteohub,2013-01-27 11:22:00,
2013-01-27 06:27:00,18.1,9.3,30.51,WNW,284,3.0,4.0,68,0.00,,,0.00,0.0,meteohub,2013-01-27 11:27:00,
2013-01-27 06:32:00,18.1,9.3,30.51,NW,326,2.0,4.0,68,0.00,,,0.00,0.0,meteohub,2013-01-27 11:32:00,
2013-01-27 06:37:00,18.1,9.3,30.51,NW,325,1.0,4.0,68,0.00,,,0.00,0.0,meteohub,2013-01-27 11:37:00,
2013-01-27 06:42:00,18.1,9.3,30.51,NW,325,2.0,4.0,68,0.00,,,0.00,0.0,meteohub,2013-01-27 11:42:00,
2013-01-27 06:47:00,18.3,9.5,30.51,West,273,2.0,5.0,68,0.00,,,0.00,0.0,meteohub,2013-01-27 11:47:00,
2013-01-27 06:52:00,18.3,9.5,30.51,NNW,328,4.0,5.0,68,0.00,,,0.00,0.0,meteohub,2013-01-27 11:52:00,
2013-01-27 06:57:00,18.3,9.5,30.51,WNW,302,3.0,5.0,68,0.00,,,0.00,0.0,meteohub,2013-01-27 11:57:00,
2013-01-27 07:02:00,18.3,9.5,30.51,WNW,296,2.0,6.0,68,0.00,,,0.00,0.0,meteohub,2013-01-27 12:02:00,
2013-01-27 07:07:00,18.5,9.3,30.51,NW,309,2.0,6.0,67,0.00,,,0.00,0.0,meteohub,2013-01-27 12:07:00,
2013-01-27 07:12:00,18.7,9.5,30.51,WNW,302,1.0,6.0,67,0.00,,,0.00,5.0,meteohub,2013-01-27 12:12:00,
2013-01-27 07:17:00,18.7,9.5,30.51,West,261,5.0,7.0,67,0.00,,,0.00,9.0,meteohub,2013-01-27 12:17:00,
2013-01-27 07:22:00,18.7,9.5,30.52,WNW,292,6.0,8.0,67,0.00,,,0.00,12.0,meteohub,2013-01-27 12:22:00,
2013-01-27 07:27:00,18.7,9.1,30.52,WNW,290,6.0,9.0,66,0.00,,,0.00,14.0,meteohub,2013-01-27 12:27:00,
2013-01-27 07:32:00,18.9,9.3,30.51,NNW,328,5.0,11.0,66,0.00,,,0.00,18.0,meteohub,2013-01-27 12:32:00,
2013-01-27 07:37:00,19.0,9.5,30.52,WNW,290,4.0,11.0,66,0.00,,,0.00,25.0,meteohub,2013-01-27 12:37:00,
2013-01-27 07:42:00,19.2,9.7,30.52,West,266,6.0,14.0,66,0.00,,,0.00,35.0,meteohub,2013-01-27 12:42:00,
2013-01-27 07:47:00,19.6,9.7,30.53,WNW,296,3.0,14.0,65,0.00,,,0.00,46.0,meteohub,2013-01-27 12:47:00,
2013-01-27 07:52:00,19.8,9.9,30.53,WNW,288,7.0,13.0,65,0.00,,,0.00,56.0,meteohub,2013-01-27 12:52:00,
2013-01-27 07:57:00,19.9,10.0,30.53,WNW,292,8.0,13.0,65,0.00,,,0.00,67.0,meteohub,2013-01-27 12:57:00,
2013-01-27 08:02:00,20.1,9.9,30.53,SW,223,4.0,14.0,64,0.00,,,0.00,83.0,meteohub,2013-01-27 13:02:00,
2013-01-27 08:07:00,20.7,10.4,30.54,NW,316,2.0,14.0,64,0.00,,,0.00,97.0,meteohub,2013-01-27 13:07:00,
2013-01-27 08:12:00,20.8,10.6,30.54,NNW,328,3.0,14.0,64,0.00,,,0.00,114.0,meteohub,2013-01-27 13:12:00,
2013-01-27 08:17:00,21.4,11.1,30.53,NNW,334,3.0,12.0,64,0.00,,,0.00,130.0,meteohub,2013-01-27 13:17:00,
2013-01-27 08:22:00,21.6,10.9,30.54,NW,313,3.0,11.0,63,0.00,,,0.00,146.0,meteohub,2013-01-27 13:22:00,
2013-01-27 08:27:00,21.7,11.1,30.54,SW,223,6.0,11.0,63,0.00,,,0.00,163.0,meteohub,2013-01-27 13:27:00,
2013-01-27 08:32:00,21.9,11.3,30.54,NW,308,4.0,15.0,63,0.00,,,0.00,179.0,meteohub,2013-01-27 13:32:00,
2013-01-27 08:37:00,22.1,11.5,30.55,NW,323,4.0,15.0,63,0.00,,,0.00,195.0,meteohub,2013-01-27 13:37:00,
2013-01-27 08:42:00,22.5,11.8,30.55,NW,315,3.0,15.0,63,0.00,,,0.00,213.0,meteohub,2013-01-27 13:42:00,
2013-01-27 08:47:00,22.5,11.8,30.54,NW,309,6.0,14.0,63,0.00,,,0.00,229.0,meteohub,2013-01-27 13:47:00,
2013-01-27 08:52:00,22.6,12.0,30.54,WNW,286,1.0,11.0,63,0.00,,,0.00,244.0,meteohub,2013-01-27 13:52:00,
2013-01-27 08:57:00,22.8,12.2,30.55,NW,306,12.0,14.0,63,0.00,,,0.00,260.0,meteohub,2013-01-27 13:57:00,
2013-01-27 09:02:00,23.2,12.4,30.55,NNW,328,7.0,15.0,63,0.00,,,0.00,272.0,meteohub,2013-01-27 14:02:00,
2013-01-27 09:07:00,23.4,12.6,30.55,WNW,295,7.0,15.0,63,0.00,,,0.00,283.0,meteohub,2013-01-27 14:07:00,
2013-01-27 09:12:00,23.5,12.7,30.55,West,277,4.0,15.0,63,0.00,,,0.00,295.0,meteohub,2013-01-27 14:12:00,
2013-01-27 09:17:00,23.7,12.9,30.55,NW,305,5.0,15.0,63,0.00,,,0.00,309.0,meteohub,2013-01-27 14:17:00,
2013-01-27 09:22:00,23.9,13.1,30.55,NW,323,8.0,15.0,63,0.00,,,0.00,322.0,meteohub,2013-01-27 14:22:00,
2013-01-27 09:27:00,24.3,13.5,30.56,NW,320,9.0,15.0,63,0.00,,,0.00,334.0,meteohub,2013-01-27 14:27:00,
2013-01-27 09:32:00,24.3,13.1,30.56,NNW,341,5.0,13.0,62,0.00,,,0.00,346.0,meteohub,2013-01-27 14:32:00,
2013-01-27 09:37:00,24.4,13.3,30.56,NW,324,11.0,14.0,62,0.00,,,0.00,359.0,meteohub,2013-01-27 14:37:00,
2013-01-27 09:42:00,24.4,13.3,30.56,NW,325,7.0,17.0,62,0.00,,,0.00,366.0,meteohub,2013-01-27 14:42:00,
2013-01-27 09:47:00,24.6,13.5,30.56,NW,315,3.0,17.0,62,0.00,,,0.00,376.0,meteohub,2013-01-27 14:47:00,
2013-01-27 09:52:00,24.8,13.3,30.56,WNW,290,12.0,17.0,61,0.00,,,0.00,388.0,meteohub,2013-01-27 14:52:00,
2013-01-27 09:57:00,25.2,13.6,30.56,NNW,331,16.0,16.0,61,0.00,,,0.00,399.0,meteohub,2013-01-27 14:57:00,
2013-01-27 10:02:00,25.3,13.5,30.57,WSW,244,9.0,18.0,60,0.00,,,0.00,408.0,meteohub,2013-01-27 15:02:00,
2013-01-27 10:07:00,25.7,13.8,30.57,WNW,296,3.0,18.0,60,0.00,,,0.00,418.0,meteohub,2013-01-27 15:07:00,
2013-01-27 10:12:00,25.9,13.8,30.57,NNW,329,10.0,21.0,60,0.00,,,0.00,427.0,meteohub,2013-01-27 15:12:00,
2013-01-27 10:17:00,26.2,13.8,30.58,NW,304,3.0,21.0,59,0.00,,,0.00,436.0,meteohub,2013-01-27 15:17:00,
2013-01-27 10:22:00,26.2,13.5,30.57,West,275,8.0,21.0,58,0.00,,,0.00,445.0,meteohub,2013-01-27 15:22:00,
2013-01-27 10:27:00,26.8,14.4,30.57,NW,321,11.0,18.0,59,0.00,,,0.00,452.0,meteohub,2013-01-27 15:27:00,
2013-01-27 10:32:00,26.6,13.5,30.58,NW,313,6.0,16.0,57,0.00,,,0.00,462.0,meteohub,2013-01-27 15:32:00,
2013-01-27 10:37:00,26.8,14.0,30.58,NW,312,7.0,19.0,58,0.00,,,0.00,469.0,meteohub,2013-01-27 15:37:00,
2013-01-27 10:42:00,26.8,14.0,30.57,North,350,10.0,19.0,58,0.00,,,0.00,476.0,meteohub,2013-01-27 15:42:00,
2013-01-27 10:47:00,27.0,13.8,30.57,NW,319,7.0,16.0,57,0.00,,,0.00,483.0,meteohub,2013-01-27 15:47:00,
2013-01-27 10:52:00,27.0,13.8,30.57,NW,314,6.0,17.0,57,0.00,,,0.00,489.0,meteohub,2013-01-27 15:52:00,
2013-01-27 10:57:00,27.1,13.5,30.57,NW,315,7.0,17.0,56,0.00,,,0.00,494.0,meteohub,2013-01-27 15:57:00,
2013-01-27 11:02:00,27.1,13.5,30.58,West,275,9.0,18.0,56,0.00,,,0.00,499.0,meteohub,2013-01-27 16:02:00,
2013-01-27 11:07:00,27.3,13.3,30.57,NW,307,8.0,19.0,55,0.00,,,0.00,503.0,meteohub,2013-01-27 16:07:00,
2013-01-27 11:12:00,27.7,14.0,30.57,NW,320,1.0,19.0,56,0.00,,,0.00,508.0,meteohub,2013-01-27 16:12:00,
2013-01-27 11:17:00,28.4,14.7,30.57,NNW,330,5.0,19.0,56,0.00,,,0.00,512.0,meteohub,2013-01-27 16:17:00,
2013-01-27 11:22:00,28.4,13.8,30.56,West,279,6.0,17.0,54,0.00,,,0.00,517.0,meteohub,2013-01-27 16:22:00,
2013-01-27 11:27:00,28.2,13.6,30.56,NW,305,11.0,20.0,54,0.00,,,0.00,520.0,meteohub,2013-01-27 16:27:00,
2013-01-27 11:32:00,28.6,14.0,30.56,NW,313,11.0,20.0,54,0.00,,,0.00,524.0,meteohub,2013-01-27 16:32:00,
2013-01-27 11:37:00,28.8,14.2,30.55,WNW,294,5.0,18.0,54,0.00,,,0.00,524.0,meteohub,2013-01-27 16:37:00,
2013-01-27 11:42:00,28.9,14.0,30.55,NW,324,5.0,16.0,53,0.00,,,0.00,531.0,meteohub,2013-01-27 16:42:00,
2013-01-27 11:47:00,29.1,13.6,30.55,NW,325,10.0,13.0,52,0.00,,,0.00,531.0,meteohub,2013-01-27 16:47:00,
2013-01-27 11:52:00,29.1,13.6,30.55,NW,324,9.0,15.0,52,0.00,,,0.00,531.0,meteohub,2013-01-27 16:52:00,
2013-01-27 11:57:00,29.3,13.8,30.54,WNW,292,7.0,15.0,52,0.00,,,0.00,531.0,meteohub,2013-01-27 16:57:00,
2013-01-27 12:02:00,29.7,14.2,30.54,WNW,301,8.0,15.0,52,0.00,,,0.00,534.0,meteohub,2013-01-27 17:02:00,
2013-01-27 12:07:00,29.7,13.8,30.54,West,271,4.0,16.0,51,0.00,,,0.00,534.0,meteohub,2013-01-27 17:07:00,
2013-01-27 12:12:00,30.0,14.0,30.54,North,0,6.0,18.0,51,0.00,,,0.00,534.0,meteohub,2013-01-27 17:12:00,
2013-01-27 12:17:00,30.7,14.7,30.54,West,262,2.0,18.0,51,0.00,,,0.00,534.0,meteohub,2013-01-27 17:17:00,
2013-01-27 12:22:00,30.7,13.8,30.54,North,350,7.0,16.0,49,0.00,,,0.00,534.0,meteohub,2013-01-27 17:22:00,
2013-01-27 12:27:00,30.7,14.4,30.53,NW,322,5.0,12.0,50,0.00,,,0.00,533.0,meteohub,2013-01-27 17:27:00,
2013-01-27 12:32:00,31.1,14.2,30.53,NW,323,6.0,13.0,49,0.00,,,0.00,533.0,meteohub,2013-01-27 17:32:00,
2013-01-27 12:37:00,31.5,14.0,30.53,WNW,293,2.0,15.0,48,0.00,,,0.00,529.0,meteohub,2013-01-27 17:37:00,
2013-01-27 12:42:00,31.5,13.6,30.53,NW,317,9.0,15.0,47,0.00,,,0.00,531.0,meteohub,2013-01-27 17:42:00,
2013-01-27 12:47:00,31.8,13.8,30.52,NW,323,5.0,15.0,47,0.00,,,0.00,522.0,meteohub,2013-01-27 17:47:00,
2013-01-27 12:52:00,31.8,13.5,30.52,NW,310,10.0,14.0,46,0.00,,,0.00,522.0,meteohub,2013-01-27 17:52:00,
2013-01-27 12:57:00,32.2,13.6,30.52,NW,317,4.0,12.0,46,0.00,,,0.00,519.0,meteohub,2013-01-27 17:57:00,
2013-01-27 13:02:00,32.5,13.1,30.51,NNW,339,4.0,12.0,44,0.00,,,0.00,522.0,meteohub,2013-01-27 18:02:00,
2013-01-27 13:07:00,33.1,13.5,30.51,West,280,5.0,12.0,44,0.00,,,0.00,512.0,meteohub,2013-01-27 18:07:00,
2013-01-27 13:12:00,32.9,13.5,30.51,NW,319,9.0,11.0,44,0.00,,,0.00,506.0,meteohub,2013-01-27 18:12:00,
2013-01-27 13:17:00,33.1,13.1,30.51,SW,217,6.0,12.0,43,0.00,,,0.00,501.0,meteohub,2013-01-27 18:17:00,
2013-01-27 13:22:00,33.3,13.1,30.51,West,280,6.0,14.0,43,0.00,,,0.00,496.0,meteohub,2013-01-27 18:22:00,
2013-01-27 13:27:00,33.4,12.7,30.51,NNW,327,3.0,14.0,42,0.00,,,0.00,490.0,meteohub,2013-01-27 18:27:00,
2013-01-27 13:32:00,33.6,12.9,30.51,WSW,257,5.0,14.0,42,0.00,,,0.00,482.0,meteohub,2013-01-27 18:32:00,
2013-01-27 13:37:00,33.6,12.9,30.50,NNW,346,9.0,13.0,42,0.00,,,0.00,476.0,meteohub,2013-01-27 18:37:00,
2013-01-27 13:42:00,33.6,12.9,30.50,WNW,289,3.0,16.0,42,0.00,,,0.00,466.0,meteohub,2013-01-27 18:42:00,
2013-01-27 13:47:00,34.0,13.3,30.50,NNW,341,5.0,16.0,42,0.00,,,0.00,459.0,meteohub,2013-01-27 18:47:00,
2013-01-27 13:52:00,34.3,13.6,30.51,SSW,208,6.0,16.0,42,0.00,,,0.00,439.0,meteohub,2013-01-27 18:52:00,
2013-01-27 13:57:00,34.3,14.2,30.51,WNW,302,6.0,13.0,43,0.00,,,0.00,443.0,meteohub,2013-01-27 18:57:00,
2013-01-27 14:02:00,34.2,13.5,30.51,NNW,330,6.0,14.0,42,0.00,,,0.00,427.0,meteohub,2013-01-27 19:02:00,
2013-01-27 14:07:00,34.7,14.5,30.51,NW,323,10.0,15.0,43,0.00,,,0.00,417.0,meteohub,2013-01-27 19:07:00,
2013-01-27 14:12:00,34.7,14.0,30.51,WSW,253,5.0,15.0,42,0.00,,,0.00,399.0,meteohub,2013-01-27 19:12:00,
2013-01-27 14:17:00,34.3,13.6,30.51,West,280,6.0,13.0,42,0.00,,,0.00,394.0,meteohub,2013-01-27 19:17:00,
2013-01-27 14:22:00,34.7,14.0,30.51,NNW,329,7.0,13.0,42,0.00,,,0.00,383.0,meteohub,2013-01-27 19:22:00,
2013-01-27 14:27:00,34.5,13.8,30.51,NW,311,5.0,13.0,42,0.00,,,0.00,392.0,meteohub,2013-01-27 19:27:00,
2013-01-27 14:32:00,34.7,14.5,30.51,WSW,256,9.0,13.0,43,0.00,,,0.00,378.0,meteohub,2013-01-27 19:32:00,
2013-01-27 14:37:00,34.5,14.4,30.51,WNW,282,8.0,13.0,43,0.00,,,0.00,315.0,meteohub,2013-01-27 19:37:00,
2013-01-27 14:42:00,34.5,14.4,30.51,NNW,340,8.0,13.0,43,0.00,,,0.00,355.0,meteohub,2013-01-27 19:42:00,
2013-01-27 14:47:00,34.7,14.5,30.51,West,263,5.0,13.0,43,0.00,,,0.00,334.0,meteohub,2013-01-27 19:47:00,
2013-01-27 14:52:00,34.9,14.7,30.50,SW,214,7.0,13.0,43,0.00,,,0.00,329.0,meteohub,2013-01-27 19:52:00,
2013-01-27 14:57:00,35.4,14.5,30.50,West,281,7.0,12.0,42,0.00,,,0.00,322.0,meteohub,2013-01-27 19:57:00,
2013-01-27 15:02:00,35.1,14.4,30.50,NW,318,4.0,13.0,42,0.00,,,0.00,311.0,meteohub,2013-01-27 20:02:00,
2013-01-27 15:07:00,35.2,14.4,30.50,NW,324,6.0,13.0,42,0.00,,,0.00,295.0,meteohub,2013-01-27 20:07:00,
2013-01-27 15:12:00,35.1,14.4,30.50,West,265,5.0,13.0,42,0.00,,,0.00,279.0,meteohub,2013-01-27 20:12:00,
2013-01-27 15:17:00,35.1,14.9,30.50,WNW,294,8.0,11.0,43,0.00,,,0.00,267.0,meteohub,2013-01-27 20:17:00,
2013-01-27 15:22:00,35.8,14.9,30.50,NW,306,3.0,11.0,42,0.00,,,0.00,253.0,meteohub,2013-01-27 20:22:00,
2013-01-27 15:27:00,36.1,14.7,30.50,WSW,252,2.0,10.0,41,0.00,,,0.00,165.0,meteohub,2013-01-27 20:27:00,
2013-01-27 15:32:00,35.6,14.7,30.50,WNW,291,5.0,10.0,42,0.00,,,0.00,200.0,meteohub,2013-01-27 20:32:00,
2013-01-27 15:37:00,35.1,14.4,30.51,SW,214,5.0,11.0,42,0.00,,,0.00,149.0,meteohub,2013-01-27 20:37:00,
2013-01-27 15:42:00,35.2,14.4,30.51,NNW,329,3.0,11.0,42,0.00,,,0.00,174.0,meteohub,2013-01-27 20:42:00,
2013-01-27 15:47:00,35.4,14.5,30.51,NW,306,8.0,11.0,42,0.00,,,0.00,144.0,meteohub,2013-01-27 20:47:00,
2013-01-27 15:52:00,35.2,14.4,30.51,NW,323,1.0,11.0,42,0.00,,,0.00,144.0,meteohub,2013-01-27 20:52:00,
2013-01-27 15:57:00,35.4,14.0,30.51,NNW,333,6.0,11.0,41,0.00,,,0.00,144.0,meteohub,2013-01-27 20:57:00,
2013-01-27 16:02:00,35.4,14.0,30.51,NW,311,5.0,11.0,41,0.00,,,0.00,128.0,meteohub,2013-01-27 21:02:00,
2013-01-27 16:07:00,35.2,13.8,30.51,NW,317,5.0,14.0,41,0.00,,,0.00,116.0,meteohub,2013-01-27 21:07:00,
2013-01-27 16:12:00,35.1,14.4,30.51,NW,315,10.0,14.0,42,0.00,,,0.00,95.0,meteohub,2013-01-27 21:12:00,
2013-01-27 16:17:00,35.1,14.4,30.51,NW,307,6.0,14.0,42,0.00,,,0.00,49.0,meteohub,2013-01-27 21:17:00,
2013-01-27 16:22:00,34.7,14.5,30.51,West,264,5.0,12.0,43,0.00,,,0.00,39.0,meteohub,2013-01-27 21:22:00,
2013-01-27 16:27:00,34.3,14.7,30.51,West,272,2.0,10.0,44,0.00,,,0.00,28.0,meteohub,2013-01-27 21:27:00,
2013-01-27 16:32:00,34.3,15.3,30.52,WNW,291,1.0,8.0,45,0.00,,,0.00,33.0,meteohub,2013-01-27 21:32:00,
2013-01-27 16:37:00,34.5,15.4,30.52,West,273,1.0,8.0,45,0.00,,,0.00,33.0,meteohub,2013-01-27 21:37:00,
2013-01-27 16:42:00,34.5,14.9,30.51,West,274,1.0,10.0,44,0.00,,,0.00,25.0,meteohub,2013-01-27 21:42:00,
2013-01-27 16:47:00,34.3,15.3,30.51,West,261,2.0,10.0,45,0.00,,,0.00,23.0,meteohub,2013-01-27 21:47:00,
2013-01-27 16:52:00,34.0,14.9,30.51,WNW,294,2.0,10.0,45,0.00,,,0.00,19.0,meteohub,2013-01-27 21:52:00,
2013-01-27 16:57:00,33.8,14.7,30.51,WSW,241,2.0,8.0,45,0.00,,,0.00,18.0,meteohub,2013-01-27 21:57:00,
2013-01-27 17:02:00,33.4,14.4,30.52,WNW,289,4.0,8.0,45,0.00,,,0.00,12.0,meteohub,2013-01-27 22:02:00,
2013-01-27 17:07:00,33.3,14.7,30.53,NNW,328,2.0,8.0,46,0.00,,,0.00,7.0,meteohub,2013-01-27 22:07:00,
2013-01-27 17:12:00,33.1,14.5,30.53,NW,310,2.0,6.0,46,0.00,,,0.00,0.0,meteohub,2013-01-27 22:12:00,
2013-01-27 17:17:00,33.1,15.1,30.53,NW,310,1.0,5.0,47,0.00,,,0.00,0.0,meteohub,2013-01-27 22:17:00,
2013-01-27 17:22:00,32.7,14.7,30.53,NW,310,4.0,4.0,47,0.00,,,0.00,0.0,meteohub,2013-01-27 22:22:00,
2013-01-27 17:27:00,32.5,14.5,30.53,NNW,335,1.0,5.0,47,0.00,,,0.00,0.0,meteohub,2013-01-27 22:27:00,
2013-01-27 17:32:00,32.5,14.5,30.53,NNW,334,2.0,5.0,47,0.00,,,0.00,0.0,meteohub,2013-01-27 22:32:00,
2013-01-27 17:37:00,32.5,14.5,30.53,NNW,334,2.0,5.0,47,0.00,,,0.00,0.0,meteohub,2013-01-27 22:37:00,
2013-01-27 17:42:00,32.4,14.9,30.53,NNW,334,3.0,4.0,48,0.00,,,0.00,0.0,meteohub,2013-01-27 22:42:00,
2013-01-27 17:47:00,32.4,14.9,30.53,NW,325,1.0,4.0,48,0.00,,,0.00,0.0,meteohub,2013-01-27 22:47:00,
2013-01-27 17:52:00,32.4,14.9,30.53,NW,325,1.0,4.0,48,0.00,,,0.00,0.0,meteohub,2013-01-27 22:52:00,
2013-01-27 17:57:00,32.2,14.7,30.54,NW,325,0.0,4.0,48,0.00,,,0.00,0.0,meteohub,2013-01-27 22:57:00,
2013-01-27 18:02:00,32.2,14.7,30.54,NW,324,2.0,4.0,48,0.00,,,0.00,0.0,meteohub,2013-01-27 23:02:00,
2013-01-27 18:07:00,32.0,14.5,30.54,NW,324,2.0,4.0,48,0.00,,,0.00,0.0,meteohub,2013-01-27 23:07:00,
2013-01-27 18:12:00,31.8,14.9,30.54,NW,324,1.0,4.0,49,0.00,,,0.00,0.0,meteohub,2013-01-27 23:12:00,
2013-01-27 18:17:00,31.8,14.9,30.54,NW,314,2.0,5.0,49,0.00,,,0.00,0.0,meteohub,2013-01-27 23:17:00,
2013-01-27 18:22:00,31.8,14.9,30.54,NW,313,2.0,5.0,49,0.00,,,0.00,0.0,meteohub,2013-01-27 23:22:00,
2013-01-27 18:27:00,31.6,14.7,30.54,NW,313,2.0,5.0,49,0.00,,,0.00,0.0,meteohub,2013-01-27 23:27:00,
2013-01-27 18:32:00,31.6,14.7,30.54,NW,313,0.0,3.0,49,0.00,,,0.00,0.0,meteohub,2013-01-27 23:32:00,
2013-01-27 18:37:00,31.5,14.5,30.54,NW,309,0.0,3.0,49,0.00,,,0.00,0.0,meteohub,2013-01-27 23:37:00,
2013-01-27 18:42:00,31.5,14.9,30.54,WSW,238,0.0,4.0,50,0.00,,,0.00,0.0,meteohub,2013-01-27 23:42:00,
2013-01-27 18:47:00,31.3,14.7,30.54,WSW,238,0.0,4.0,50,0.00,,,0.00,0.0,meteohub,2013-01-27 23:47:00,
2013-01-27 18:52:00,31.3,14.7,30.54,WSW,239,3.0,4.0,50,0.00,,,0.00,0.0,meteohub,2013-01-27 23:52:00,
2013-01-27 18:57:00,31.3,14.7,30.54,WNW,293,2.0,4.0,50,0.00,,,0.00,0.0,meteohub,2013-01-27 23:57:00,
2013-01-27 19:02:00,31.3,14.7,30.54,WNW,293,3.0,4.0,50,0.00,,,0.00,0.0,meteohub,2013-01-28 00:02:00,
2013-01-27 19:07:00,31.1,14.5,30.54,NW,311,2.0,4.0,50,0.00,,,0.00,0.0,meteohub,2013-01-28 00:07:00,
2013-01-27 19:12:00,31.1,14.5,30.54,West,273,2.0,4.0,50,0.00,,,0.00,0.0,meteohub,2013-01-28 00:12:00,
2013-01-27 19:17:00,30.9,14.9,30.54,WNW,300,3.0,4.0,51,0.00,,,0.00,0.0,meteohub,2013-01-28 00:17:00,
2013-01-27 19:22:00,30.9,14.9,30.54,West,270,1.0,5.0,51,0.00,,,0.00,0.0,meteohub,2013-01-28 00:22:00,
2013-01-27 19:27:00,30.9,14.9,30.54,West,276,1.0,5.0,51,0.00,,,0.00,0.0,meteohub,2013-01-28 00:27:00,
2013-01-27 19:32:00,30.6,15.1,30.54,West,276,1.0,4.0,52,0.00,,,0.00,0.0,meteohub,2013-01-28 00:32:00,
2013-01-27 19:37:00,30.4,15.3,30.54,West,276,3.0,4.0,53,0.00,,,0.00,0.0,meteohub,2013-01-28 00:37:00,
2013-01-27 19:42:00,30.4,15.3,30.54,West,279,1.0,5.0,53,0.00,,,0.00,0.0,meteohub,2013-01-28 00:42:00,
2013-01-27 19:47:00,30.4,15.3,30.54,WSW,243,2.0,5.0,53,0.00,,,0.00,0.0,meteohub,2013-01-28 00:47:00,
2013-01-27 19:52:00,30.2,15.1,30.54,WSW,243,0.0,5.0,53,0.00,,,0.00,0.0,meteohub,2013-01-28 00:52:00,
2013-01-27 19:57:00,29.8,15.3,30.53,WSW,243,1.0,4.0,54,0.00,,,0.00,0.0,meteohub,2013-01-28 00:57:00,
2013-01-27 20:02:00,29.7,15.1,30.53,WSW,243,0.0,3.0,54,0.00,,,0.00,0.0,meteohub,2013-01-28 01:02:00,
2013-01-27 20:07:00,29.5,15.3,30.53,WSW,243,0.0,3.0,55,0.00,,,0.00,0.0,meteohub,2013-01-28 01:07:00,
2013-01-27 20:12:00,29.5,15.3,30.53,WSW,243,0.0,3.0,55,0.00,,,0.00,0.0,meteohub,2013-01-28 01:12:00,
2013-01-27 20:17:00,29.3,15.1,30.53,WSW,243,1.0,2.0,55,0.00,,,0.00,0.0,meteohub,2013-01-28 01:17:00,
2013-01-27 20:22:00,29.1,15.4,30.53,WSW,243,2.0,2.0,56,0.00,,,0.00,0.0,meteohub,2013-01-28 01:22:00,
2013-01-27 20:27:00,28.9,15.3,30.53,SW,223,1.0,3.0,56,0.00,,,0.00,0.0,meteohub,2013-01-28 01:27:00,
2013-01-27 20:32:00,28.8,15.4,30.53,SW,223,0.0,4.0,57,0.00,,,0.00,0.0,meteohub,2013-01-28 01:32:00,
2013-01-27 20:37:00,28.8,15.4,30.53,SW,223,0.0,4.0,57,0.00,,,0.00,0.0,meteohub,2013-01-28 01:37:00,
2013-01-27 20:42:00,28.8,15.4,30.53,SW,223,1.0,2.0,57,0.00,,,0.00,0.0,meteohub,2013-01-28 01:42:00,
2013-01-27 20:47:00,28.6,15.3,30.53,SW,223,0.0,2.0,57,0.00,,,0.00,0.0,meteohub,2013-01-28 01:47:00,
2013-01-27 20:52:00,28.6,15.6,30.53,SW,223,0.0,2.0,58,0.00,,,0.00,0.0,meteohub,2013-01-28 01:52:00,
2013-01-27 20:57:00,28.2,15.3,30.54,SW,223,2.0,2.0,58,0.00,,,0.00,0.0,meteohub,2013-01-28 01:57:00,
2013-01-27 21:02:00,28.2,15.3,30.54,SW,223,0.0,2.0,58,0.00,,,0.00,0.0,meteohub,2013-01-28 02:02:00,
2013-01-27 21:07:00,28.2,15.3,30.55,SW,223,2.0,2.0,58,0.00,,,0.00,0.0,meteohub,2013-01-28 02:07:00,
2013-01-27 21:12:00,28.2,15.3,30.55,SW,223,1.0,4.0,58,0.00,,,0.00,0.0,meteohub,2013-01-28 02:12:00,
2013-01-27 21:17:00,28.0,15.3,30.55,SW,223,0.0,4.0,58,0.00,,,0.00,0.0,meteohub,2013-01-28 02:17:00,
2013-01-27 21:22:00,28.0,15.6,30.54,SW,223,0.0,3.0,59,0.00,,,0.00,0.0,meteohub,2013-01-28 02:22:00,
2013-01-27 21:27:00,28.0,15.6,30.54,SW,223,0.0,1.0,59,0.00,,,0.00,0.0,meteohub,2013-01-28 02:27:00,
2013-01-27 21:32:00,27.9,15.4,30.54,SW,223,0.0,1.0,59,0.00,,,0.00,0.0,meteohub,2013-01-28 02:32:00,
2013-01-27 21:37:00,27.7,15.6,30.55,SW,223,0.0,2.0,60,0.00,,,0.00,0.0,meteohub,2013-01-28 02:37:00,
2013-01-27 21:42:00,27.3,15.3,30.55,SW,223,0.0,2.0,60,0.00,,,0.00,0.0,meteohub,2013-01-28 02:42:00,
2013-01-27 21:47:00,27.3,15.6,30.54,SW,223,0.0,2.0,61,0.00,,,0.00,0.0,meteohub,2013-01-28 02:47:00,
2013-01-27 21:52:00,27.1,15.4,30.54,SW,223,0.0,2.0,61,0.00,,,0.00,0.0,meteohub,2013-01-28 02:52:00,
2013-01-27 21:57:00,27.1,15.4,30.54,SW,223,0.0,2.0,61,0.00,,,0.00,0.0,meteohub,2013-01-28 02:57:00,
2013-01-27 22:02:00,27.1,15.4,30.54,SW,223,1.0,0.0,61,0.00,,,0.00,0.0,meteohub,2013-01-28 03:02:00,
2013-01-27 22:07:00,27.0,15.6,30.53,SW,223,0.0,2.0,62,0.00,,,0.00,0.0,meteohub,2013-01-28 03:07:00,
2013-01-27 22:12:00,26.4,15.6,30.53,SW,223,1.0,2.0,63,0.00,,,0.00,0.0,meteohub,2013-01-28 03:12:00,
2013-01-27 22:17:00,26.2,15.4,30.53,SW,223,0.0,2.0,63,0.00,,,0.00,0.0,meteohub,2013-01-28 03:17:00,
2013-01-27 22:22:00,26.2,15.8,30.53,SW,223,0.0,2.0,64,0.00,,,0.00,0.0,meteohub,2013-01-28 03:22:00,
2013-01-27 22:27:00,26.2,15.8,30.53,SW,223,0.0,2.0,64,0.00,,,0.00,0.0,meteohub,2013-01-28 03:27:00,
2013-01-27 22:32:00,26.1,15.6,30.53,SW,223,0.0,1.0,64,0.00,,,0.00,0.0,meteohub,2013-01-28 03:32:00,
2013-01-27 22:37:00,25.9,15.4,30.53,SW,223,0.0,0.0,64,0.00,,,0.00,0.0,meteohub,2013-01-28 03:37:00,
2013-01-27 22:42:00,25.5,15.4,30.53,SW,223,0.0,0.0,65,0.00,,,0.00,0.0,meteohub,2013-01-28 03:42:00,
2013-01-27 22:47:00,25.3,15.3,30.53,SW,223,0.0,0.0,65,0.00,,,0.00,0.0,meteohub,2013-01-28 03:47:00,
2013-01-27 22:52:00,25.0,15.3,30.53,SW,223,0.0,0.0,66,0.00,,,0.00,0.0,meteohub,2013-01-28 03:52:00,
2013-01-27 22:57:00,24.6,14.9,30.53,SW,223,0.0,1.0,66,0.00,,,0.00,0.0,meteohub,2013-01-28 03:57:00,
2013-01-27 23:02:00,24.4,15.1,30.53,SW,223,0.0,1.0,67,0.00,,,0.00,0.0,meteohub,2013-01-28 04:02:00,
2013-01-27 23:07:00,24.4,15.1,30.53,SW,223,0.0,1.0,67,0.00,,,0.00,0.0,meteohub,2013-01-28 04:07:00,
2013-01-27 23:12:00,24.6,15.6,30.53,SW,223,0.0,0.0,68,0.00,,,0.00,0.0,meteohub,2013-01-28 04:12:00,
2013-01-27 23:17:00,25.3,16.0,30.53,SW,223,0.0,0.0,67,0.00,,,0.00,0.0,meteohub,2013-01-28 04:17:00,
2013-01-27 23:22:00,25.5,15.8,30.52,SW,223,0.0,0.0,66,0.00,,,0.00,0.0,meteohub,2013-01-28 04:22:00,
2013-01-27 23:27:00,25.3,15.6,30.52,SW,223,0.0,0.0,66,0.00,,,0.00,0.0,meteohub,2013-01-28 04:27:00,
2013-01-27 23:32:00,25.5,15.8,30.52,SW,223,1.0,0.0,66,0.00,,,0.00,0.0,meteohub,2013-01-28 04:32:00,
2013-01-27 23:37:00,25.3,15.6,30.52,SW,223,1.0,1.0,66,0.00,,,0.00,0.0,meteohub,2013-01-28 04:37:00,
2013-01-27 23:42:00,25.0,15.6,30.52,SW,223,0.0,1.0,67,0.00,,,0.00,0.0,meteohub,2013-01-28 04:42:00,
2013-01-27 23:47:00,25.2,15.8,30.52,SW,223,1.0,1.0,67,0.00,,,0.00,0.0,meteohub,2013-01-28 04:47:00,
2013-01-27 23:52:00,25.2,15.8,30.52,SW,223,1.0,2.0,67,0.00,,,0.00,0.0,meteohub,2013-01-28 04:52:00,
2013-01-27 23:57:00,25.0,16.0,30.52,SW,223,2.0,2.0,68,0.00,,,0.00,0.0,meteohub,2013-01-28 04:57:00,